Weather in Krasnopolye

Russia / Sakhalin District     48°56′31″N   142°12′49″E
temp.,
°C
wind,
m/s
gust,
m/s
humid.,
%
clouds,
%
prec.,
mm/h
press.,
hPa
HPBL,
m
19 may, wed
wed1923:00+10sse4165652 0.0 1006443
02:00+9se4116698 0.0 1006262
05:00+9se410652 0.0 1005245
08:00+12sse48600 0.0 1006306
11:00+17s59450 0.0 1005574
14:00+19s59410 0.0 1004659
17:00+18s511430 0.0 1004711
20:00+14s395591 0.0 1007707
20 may, thu
thu2023:00+9se2377100 0.0 100888
02:00+7ese2290100 0.3 100954
05:00+7ese22894 0.3 100942
08:00+11se24690 0.0 1009294
11:00+16s46550 0.0 1008804
14:00+19s58500 0.0 1007876
17:00+17s59555 0.0 1005569
20:00+11s378695 0.7 1006443
21 may, fri
fri2123:00+9s379674 2.2 1007329
02:00+9se2498100 0.1 1007202
05:00+9sse239899 0.1 1007226
08:00+10se119698 0.0 1008217
11:00+13wsw138597 0.0 1009506
14:00+13wsw128295 0.0 1009504
17:00+19sw12595 0.0 1007834
20:00+14se236917 0.0 1007334
22 may, sat
sat2223:00+7e237798 0.0 101071
02:00+5e2380100 0.0 1010102
05:00+5e2380100 0.0 1010104
08:00+8e2366100 0.0 1011316
11:00+11e2456100 0.0 1011643
14:00+13ese1259100 0.0 1011858
17:00+12e3456100 0.0 1011850
20:00+9e254997 0.0 1013572
23 may, sun
sun2323:00+7ese2257100 0.0 1015109
02:00+6e225771 0.0 101587
05:00+5ese225799 0.0 101576
08:00+8ese23485 0.0 1015318
11:00+14sse34381 0.0 10141014
14:00+17s44350 0.0 10131440
17:00+16s45360 0.0 10121181
20:00+13sse35450 0.0 1012534